Location: Blandford
(50.8667°N, 2.1667°W)
Time: 23:46:01
(UTC+00:00)

STARLINK-1254 - Pass Details

Date: 09 April 2020
Orbit: 549 x 551 km, 53.0° (Epoch: 24 May)

Event Time Altitude Azimuth Distance (km) Brightness Sun altitude
Rises 19:56:19 0° 290° (WNW) 2,753 9.4 -9.9°
Reaches altitude 10° 19:58:41 10° 282° (WNW) 1,854 7.7 -10.2°
Maximum altitude 20:02:33 36° 216° (SW) 904 4.8 -10.8°
Enters shadow 20:06:06 12° 151° (SSE) 1,740 5.7 -11.3°
